Time,TemperatureF,DewpointF,PressureIn,WindDirection,WindDirectionDegrees,WindSpeedMPH,WindSpeedGustMPH,Humidity,HourlyPrecipIn,Conditions,Clouds,dailyrainin,SoftwareType,DateUTC
2013-01-19 00:01:00,14.2,5.9,30.30,SSW,210,0.0,1.0,69,0.00,,,0.00,Wunderground v.1.15,2013-01-19 05:01:00,
2013-01-19 00:02:00,14.2,6.2,30.30,SSW,210,0.0,1.0,70,0.00,,,0.00,Wunderground v.1.15,2013-01-19 05:02:00,
2013-01-19 00:04:00,14.2,6.2,30.30,SSW,210,0.0,1.0,70,0.00,,,0.00,Wunderground v.1.15,2013-01-19 05:04:00,
2013-01-19 00:05:00,14.1,5.8,30.30,SSW,210,0.0,1.0,69,0.00,,,0.00,Wunderground v.1.15,2013-01-19 05:05:00,
2013-01-19 00:08:00,14.2,5.9,30.30,WSW,246,2.0,2.0,69,0.00,,,0.00,Wunderground v.1.15,2013-01-19 05:08:00,
2013-01-19 00:10:00,14.2,5.9,30.30,SW,218,0.0,0.0,69,0.00,,,0.00,Wunderground v.1.15,2013-01-19 05:10:00,
2013-01-19 00:13:00,14.2,5.9,30.30,WSW,238,0.0,0.0,69,0.00,,,0.00,Wunderground v.1.15,2013-01-19 05:13:00,
2013-01-19 00:15:00,14.2,5.9,30.30,WSW,238,0.0,0.0,69,0.00,,,0.00,Wunderground v.1.15,2013-01-19 05:15:00,
2013-01-19 00:16:00,14.2,5.9,30.29,SW,228,1.0,1.0,69,0.00,,,0.00,Wunderground v.1.15,2013-01-19 05:16:00,
2013-01-19 00:19:00,14.3,6.0,30.29,SSW,209,0.0,4.0,69,0.00,,,0.00,Wunderground v.1.15,2013-01-19 05:19:00,
2013-01-19 00:20:00,14.3,6.0,30.29,SSW,211,2.0,2.0,69,0.00,,,0.00,Wunderground v.1.15,2013-01-19 05:20:00,
2013-01-19 00:21:00,14.3,6.0,30.29,East,88,2.0,2.0,69,0.00,,,0.00,Wunderground v.1.15,2013-01-19 05:21:00,
2013-01-19 00:23:00,14.4,6.1,30.29,East,91,1.0,2.0,69,0.00,,,0.00,Wunderground v.1.15,2013-01-19 05:23:00,
2013-01-19 00:26:00,14.5,5.9,30.29,West,262,0.0,4.0,68,0.00,,,0.00,Wunderground v.1.15,2013-01-19 05:26:00,
2013-01-19 00:27:00,14.6,6.0,30.28,West,263,0.0,4.0,68,0.00,,,0.00,Wunderground v.1.15,2013-01-19 05:27:00,
2013-01-19 00:29:00,14.6,6.0,30.28,West,263,0.0,4.0,68,0.00,,,0.00,Wunderground v.1.15,2013-01-19 05:29:00,
2013-01-19 00:30:00,14.7,6.0,30.29,South,185,1.0,1.0,68,0.00,,,0.00,Wunderground v.1.15,2013-01-19 05:30:00,
2013-01-19 00:35:00,14.7,6.0,30.29,SSE,157,2.0,2.0,68,0.00,,,0.00,Wunderground v.1.15,2013-01-19 05:35:00,
2013-01-19 00:38:00,14.8,6.1,30.29,SSE,159,2.0,3.0,68,0.00,,,0.00,Wunderground v.1.15,2013-01-19 05:38:00,
2013-01-19 00:41:00,14.8,6.1,30.29,South,184,3.0,3.0,68,0.00,,,0.00,Wunderground v.1.15,2013-01-19 05:41:00,
2013-01-19 00:43:00,14.8,6.1,30.29,SSW,211,0.0,3.0,68,0.00,,,0.00,Wunderground v.1.15,2013-01-19 05:43:00,
2013-01-19 00:44:00,14.8,6.1,30.29,SSW,211,0.0,3.0,68,0.00,,,0.00,Wunderground v.1.15,2013-01-19 05:44:00,
2013-01-19 00:46:00,14.8,6.5,30.28,SW,233,0.0,3.0,69,0.00,,,0.00,Wunderground v.1.15,2013-01-19 05:46:00,
2013-01-19 00:49:00,14.8,6.5,30.29,SW,233,2.0,3.0,69,0.00,,,0.00,Wunderground v.1.15,2013-01-19 05:49:00,
2013-01-19 00:50:00,14.8,6.5,30.29,SW,233,0.0,1.0,69,0.00,,,0.00,Wunderground v.1.15,2013-01-19 05:50:00,
2013-01-19 00:51:00,14.8,6.1,30.28,SW,223,0.0,1.0,68,0.00,,,0.00,Wunderground v.1.15,2013-01-19 05:51:00,
2013-01-19 00:54:00,14.9,6.2,30.28,East,93,0.0,1.0,68,0.00,,,0.00,Wunderground v.1.15,2013-01-19 05:54:00,
2013-01-19 00:56:00,14.9,6.2,30.28,East,94,0.0,1.0,68,0.00,,,0.00,Wunderground v.1.15,2013-01-19 05:56:00,
2013-01-19 00:58:00,15.0,6.3,30.28,East,94,0.0,1.0,68,0.00,,,0.00,Wunderground v.1.15,2013-01-19 05:58:00,
2013-01-19 01:01:00,15.1,6.4,30.28,East,98,0.0,0.0,68,0.00,,,0.00,Wunderground v.1.15,2013-01-19 06:01:00,
2013-01-19 01:02:00,15.1,6.4,30.29,ENE,73,0.0,0.0,68,0.00,,,0.00,Wunderground v.1.15,2013-01-19 06:02:00,
2013-01-19 01:03:00,15.1,6.4,30.29,South,175,1.0,1.0,68,0.00,,,0.00,Wunderground v.1.15,2013-01-19 06:03:00,
2013-01-19 01:07:00,15.3,6.6,30.28,SW,231,3.0,3.0,68,0.00,,,0.00,Wunderground v.1.15,2013-01-19 06:07:00,
2013-01-19 01:08:00,15.3,6.6,30.28,WSW,258,1.0,3.0,68,0.00,,,0.00,Wunderground v.1.15,2013-01-19 06:08:00,
2013-01-19 01:12:00,15.3,6.6,30.28,NE,46,1.0,1.0,68,0.00,,,0.00,Wunderground v.1.15,2013-01-19 06:12:00,
2013-01-19 01:15:00,15.3,6.6,30.28,SSW,204,0.0,1.0,68,0.00,,,0.00,Wunderground v.1.15,2013-01-19 06:15:00,
2013-01-19 01:16:00,15.3,6.6,30.28,SSW,204,0.0,1.0,68,0.00,,,0.00,Wunderground v.1.15,2013-01-19 06:16:00,
2013-01-19 01:17:00,15.3,6.6,30.29,SSE,168,0.0,1.0,68,0.00,,,0.00,Wunderground v.1.15,2013-01-19 06:17:00,
2013-01-19 01:19:00,15.3,6.6,30.29,SW,229,0.0,1.0,68,0.00,,,0.00,Wunderground v.1.15,2013-01-19 06:19:00,
2013-01-19 01:24:00,15.2,6.8,30.29,SW,229,0.0,0.0,69,0.00,,,0.00,Wunderground v.1.15,2013-01-19 06:24:00,
2013-01-19 01:25:00,15.2,7.2,30.29,SW,229,0.0,0.0,70,0.00,,,0.00,Wunderground v.1.15,2013-01-19 06:25:00,
2013-01-19 01:27:00,15.1,6.8,30.29,SW,229,0.0,0.0,69,0.00,,,0.00,Wunderground v.1.15,2013-01-19 06:27:00,
2013-01-19 01:28:00,15.0,6.7,30.28,SW,223,0.0,0.0,69,0.00,,,0.00,Wunderground v.1.15,2013-01-19 06:28:00,
2013-01-19 01:31:00,15.0,6.7,30.28,SSW,198,0.0,0.0,69,0.00,,,0.00,Wunderground v.1.15,2013-01-19 06:31:00,
2013-01-19 01:32:00,15.0,6.7,30.28,East,100,0.0,0.0,69,0.00,,,0.00,Wunderground v.1.15,2013-01-19 06:32:00,
2013-01-19 01:33:00,14.9,6.9,30.28,East,99,0.0,0.0,70,0.00,,,0.00,Wunderground v.1.15,2013-01-19 06:33:00,
2013-01-19 01:35:00,15.0,7.0,30.28,SSW,200,0.0,0.0,70,0.00,,,0.00,Wunderground v.1.15,2013-01-19 06:35:00,
2013-01-19 01:38:00,15.1,7.4,30.28,SSE,156,7.0,7.0,71,0.00,,,0.00,Wunderground v.1.15,2013-01-19 06:38:00,
2013-01-19 01:40:00,15.1,6.8,30.27,SE,130,4.0,4.0,69,0.00,,,0.00,Wunderground v.1.15,2013-01-19 06:40:00,
2013-01-19 01:42:00,15.4,7.0,30.27,WSW,238,3.0,4.0,69,0.00,,,0.00,Wunderground v.1.15,2013-01-19 06:42:00,
2013-01-19 01:43:00,15.5,7.1,30.27,WSW,238,0.0,4.0,69,0.00,,,0.00,Wunderground v.1.15,2013-01-19 06:43:00,
2013-01-19 01:46:00,15.5,7.5,30.27,WSW,238,0.0,4.0,70,0.00,,,0.00,Wunderground v.1.15,2013-01-19 06:46:00,
2013-01-19 01:47:00,15.5,7.5,30.27,WSW,238,0.0,4.0,70,0.00,,,0.00,Wunderground v.1.15,2013-01-19 06:47:00,
2013-01-19 01:49:00,15.5,7.1,30.27,South,188,0.0,4.0,69,0.00,,,0.00,Wunderground v.1.15,2013-01-19 06:49:00,
2013-01-19 01:51:00,15.5,6.8,30.27,WSW,250,0.0,2.0,68,0.00,,,0.00,Wunderground v.1.15,2013-01-19 06:51:00,
2013-01-19 01:52:00,15.5,6.8,30.27,WNW,288,3.0,3.0,68,0.00,,,0.00,Wunderground v.1.15,2013-01-19 06:52:00,
2013-01-19 01:54:00,15.5,6.8,30.27,WNW,283,1.0,3.0,68,0.00,,,0.00,Wunderground v.1.15,2013-01-19 06:54:00,
2013-01-19 01:57:00,15.5,7.1,30.27,WNW,283,0.0,3.0,69,0.00,,,0.00,Wunderground v.1.15,2013-01-19 06:57:00,
2013-01-19 01:59:00,15.4,6.7,30.27,West,265,1.0,3.0,68,0.00,,,0.00,Wunderground v.1.15,2013-01-19 06:59:00,
2013-01-19 02:00:00,15.4,7.0,30.27,NW,311,2.0,2.0,69,0.00,,,0.00,Wunderground v.1.15,2013-01-19 07:00:00,
2013-01-19 02:01:00,15.4,7.0,30.27,NW,311,0.0,2.0,69,0.00,,,0.00,Wunderground v.1.15,2013-01-19 07:01:00,
2013-01-19 02:02:00,15.3,6.9,30.27,NW,311,2.0,2.0,69,0.00,,,0.00,Wunderground v.1.15,2013-01-19 07:02:00,
2013-01-19 02:04:00,15.3,7.3,30.27,NW,311,2.0,2.0,70,0.00,,,0.00,Wunderground v.1.15,2013-01-19 07:04:00,
2013-01-19 02:05:00,15.2,7.2,30.27,WNW,290,2.0,4.0,70,0.00,,,0.00,Wunderground v.1.15,2013-01-19 07:05:00,
2013-01-19 02:07:00,15.1,7.1,30.27,South,175,2.0,5.0,70,0.00,,,0.00,Wunderground v.1.15,2013-01-19 07:07:00,
2013-01-19 02:09:00,15.3,7.3,30.27,SW,225,1.0,7.0,70,0.00,,,0.00,Wunderground v.1.15,2013-01-19 07:09:00,
2013-01-19 02:10:00,15.5,7.5,30.27,SW,225,0.0,1.0,70,0.00,,,0.00,Wunderground v.1.15,2013-01-19 07:10:00,
2013-01-19 02:12:00,15.6,7.9,30.27,WSW,253,3.0,3.0,71,0.00,,,0.00,Wunderground v.1.15,2013-01-19 07:12:00,
2013-01-19 02:14:00,15.8,7.7,30.26,WSW,243,2.0,7.0,70,0.00,,,0.00,Wunderground v.1.15,2013-01-19 07:14:00,
2013-01-19 02:15:00,15.8,8.1,30.26,SW,217,2.0,7.0,71,0.00,,,0.00,Wunderground v.1.15,2013-01-19 07:15:00,
2013-01-19 02:17:00,15.8,8.1,30.27,SW,219,5.0,7.0,71,0.00,,,0.00,Wunderground v.1.15,2013-01-19 07:17:00,
2013-01-19 02:18:00,15.8,8.1,30.27,SSW,207,5.0,7.0,71,0.00,,,0.00,Wunderground v.1.15,2013-01-19 07:18:00,
2013-01-19 02:19:00,15.8,7.7,30.27,West,259,2.0,7.0,70,0.00,,,0.00,Wunderground v.1.15,2013-01-19 07:19:00,
2013-01-19 02:20:00,16.0,8.3,30.26,SSW,213,9.0,9.0,71,0.00,,,0.00,Wunderground v.1.15,2013-01-19 07:20:00,
2013-01-19 02:22:00,16.1,8.7,30.26,WSW,252,2.0,9.0,72,0.00,,,0.00,Wunderground v.1.15,2013-01-19 07:22:00,
2013-01-19 02:23:00,16.2,9.1,30.26,West,267,3.0,9.0,73,0.00,,,0.00,Wunderground v.1.15,2013-01-19 07:23:00,
2013-01-19 02:24:00,16.2,9.1,30.26,WSW,240,4.0,9.0,73,0.00,,,0.00,Wunderground v.1.15,2013-01-19 07:24:00,
2013-01-19 02:26:00,16.1,9.0,30.26,WSW,249,8.0,9.0,73,0.00,,,0.00,Wunderground v.1.15,2013-01-19 07:26:00,
2013-01-19 02:28:00,16.2,9.4,30.26,SW,236,2.0,9.0,74,0.00,,,0.00,Wunderground v.1.15,2013-01-19 07:28:00,
2013-01-19 02:29:00,16.2,9.7,30.26,West,278,3.0,9.0,75,0.00,,,0.00,Wunderground v.1.15,2013-01-19 07:29:00,
2013-01-19 02:31:00,16.1,9.9,30.26,West,278,4.0,4.0,76,0.00,,,0.00,Wunderground v.1.15,2013-01-19 07:31:00,
2013-01-19 02:33:00,15.9,10.0,30.26,WSW,241,3.0,5.0,77,0.00,,,0.00,Wunderground v.1.15,2013-01-19 07:33:00,
2013-01-19 02:34:00,15.9,10.0,30.26,SSW,211,4.0,7.0,77,0.00,,,0.00,Wunderground v.1.15,2013-01-19 07:34:00,
2013-01-19 02:35:00,15.9,10.0,30.26,WNW,298,3.0,7.0,77,0.00,,,0.00,Wunderground v.1.15,2013-01-19 07:35:00,
2013-01-19 02:36:00,15.9,10.3,30.26,NNW,328,0.0,7.0,78,0.00,,,0.00,Wunderground v.1.15,2013-01-19 07:36:00,
2013-01-19 02:38:00,15.8,10.2,30.26,NNW,328,0.0,7.0,78,0.00,,,0.00,Wunderground v.1.15,2013-01-19 07:38:00,
2013-01-19 02:39:00,15.8,10.2,30.26,NNW,328,0.0,7.0,78,0.00,,,0.00,Wunderground v.1.15,2013-01-19 07:39:00,
2013-01-19 02:40:00,15.7,10.1,30.26,NNW,328,0.0,2.0,78,0.00,,,0.00,Wunderground v.1.15,2013-01-19 07:40:00,
2013-01-19 02:41:00,15.6,10.2,30.26,NNW,328,1.0,2.0,79,0.00,,,0.00,Wunderground v.1.15,2013-01-19 07:41:00,
2013-01-19 02:43:00,15.5,10.4,30.26,West,270,7.0,7.0,80,0.00,,,0.00,Wunderground v.1.15,2013-01-19 07:43:00,
2013-01-19 02:44:00,15.5,10.4,30.26,SSE,159,2.0,8.0,80,0.00,,,0.00,Wunderground v.1.15,2013-01-19 07:44:00,
2013-01-19 02:45:00,15.5,10.4,30.25,South,170,0.0,8.0,80,0.00,,,0.00,Wunderground v.1.15,2013-01-19 07:45:00,
2013-01-19 02:46:00,15.4,10.3,30.25,SSE,166,0.0,8.0,80,0.00,,,0.00,Wunderground v.1.15,2013-01-19 07:46:00,
2013-01-19 02:48:00,15.4,10.6,30.26,SW,214,1.0,8.0,81,0.00,,,0.00,Wunderground v.1.15,2013-01-19 07:48:00,
2013-01-19 02:49:00,15.4,10.9,30.26,SSW,200,2.0,8.0,82,0.00,,,0.00,Wunderground v.1.15,2013-01-19 07:49:00,
2013-01-19 02:51:00,15.4,11.2,30.25,SSW,199,0.0,1.0,83,0.00,,,0.00,Wunderground v.1.15,2013-01-19 07:51:00,
2013-01-19 02:53:00,15.6,11.6,30.25,WSW,248,1.0,4.0,84,0.00,,,0.00,Wunderground v.1.15,2013-01-19 07:53:00,
2013-01-19 02:55:00,15.7,12.0,30.25,SSW,198,1.0,4.0,85,0.00,,,0.00,Wunderground v.1.15,2013-01-19 07:55:00,
2013-01-19 02:56:00,15.7,12.0,30.25,West,272,2.0,6.0,85,0.00,,,0.00,Wunderground v.1.15,2013-01-19 07:56:00,
2013-01-19 02:58:00,15.9,12.5,30.24,SW,230,2.0,7.0,86,0.00,,,0.00,Wunderground v.1.15,2013-01-19 07:58:00,
2013-01-19 17:25:00,36.2,22.4,29.99,WSW,245,7.0,7.0,57,0.00,,,0.00,Wunderground v.1.15,2013-01-19 22:25:00,
2013-01-19 17:26:00,36.3,22.5,29.98,SSW,198,4.0,7.0,57,0.00,,,0.00,Wunderground v.1.15,2013-01-19 22:26:00,
2013-01-19 17:30:00,36.4,23.4,29.98,WSW,250,6.0,12.0,59,0.00,,,0.00,Wunderground v.1.15,2013-01-19 22:30:00,
2013-01-19 17:31:00,36.3,22.5,29.98,West,273,5.0,12.0,57,0.00,,,0.00,Wunderground v.1.15,2013-01-19 22:31:00,
2013-01-19 17:35:00,36.0,23.0,29.98,WNW,296,3.0,5.0,59,0.00,,,0.00,Wunderground v.1.15,2013-01-19 22:35:00,
2013-01-19 17:37:00,35.9,23.0,29.98,SSW,213,1.0,5.0,59,0.00,,,0.00,Wunderground v.1.15,2013-01-19 22:37:00,